Location: Neuvy-Saint-S�pulchre
(46.5950°N, 1.8122°E)
Time: 07:19:50
(UTC+02:00)

ISS - Visible Passes

Search period start: 28 July 2021 00:00
Search period end: 07 August 2021 00:00
Orbit: 419 x 421 km, 51.6° (Epoch: 28 July)

Date Brightness Start Highest point End Pass type
(mag) Time Alt. Az. Time Alt. Az. Time Alt. Az.
28 Jul -0.9 00:47:06 10° W 00:47:19 11° W 00:47:19 11° W visible
28 Jul -3.5 22:22:08 10° WNW 22:25:31 67° NNE 22:28:41 11° ESE visible
28 Jul -2.1 23:59:20 10° W 00:01:38 23° SW 00:01:38 23° SW visible
29 Jul -2.9 23:11:49 10° WNW 23:14:59 37° SW 23:16:01 29° S visible
30 Jul -3.4 22:24:29 10° WNW 22:27:49 57° SSW 22:30:29 15° SE visible
31 Jul -1.6 23:14:58 10° W 23:17:03 15° SW 23:18:00 14° SSW visible
01 Aug -2.0 22:27:17 10° W 22:30:04 24° SW 22:32:38 11° SSE visible
